Вернуться в каталог

FENGYUN 1C DEB

АктивенPO
NORAD 30045·DEBRIS·🇨🇳 China

Запущен May 10, 1999 с Taiyuan Satellite Launch Center

Loading…

Ближайшие Пролёты (ближайшие 24 часа)

TLE

СвежийSource: Space-Track

Эпоха: Sep 14, 2026, 02:43 UTC

1 30045U 99025NW  26257.11354306  .00002236  00000-0  95820-3 0  9992
2 30045  99.1658 308.9590 0091240  48.2156 340.8560 14.23687432  6055

Отслеживайте FENGYUN 1C DEB в реальном времени с AllMySat

Download on the App Store